Find Starlink 2504

NORAD ID: 48328 Int'l Des: 2021-036 Owner: SPXS Country: US Constellation: starlink operational
LEOCIRCULARSTARLINK_TYPE

リアルタイム位置

3D地球を読み込み中...

Starlink 2504について

説明を読み込み中...

次回通過

Passes for default location (London). Set your location on the main map for personalized predictions.

高度履歴

Loading altitude history...

軌道要素

1 48328U 21036BE 26125.49080074 .00002359 00000-0 87755-4 0 9990
2 48328 53.1572 196.8940 0001069 91.5576 268.5547 15.31700821276736
Epoch: May 5, 2026 • Age: 17 hours

現在のステータス

高度 473.3 km
速度 7.63 km/s
衛星直下点 -8.61°S, 111.37°W
打ち上げ日 Apr 29, 2021
運用期間 5 years
タイプ internet

技術仕様

分類 Payload
質量 260.00 kg
乾燥質量 248.00 kg
総質量 260.00 kg
長さ 0.20 m
直径 2.80 m
スパン 9.00 m
形状 Box + pan
製造者 SPXS
バスタイプ Starlink
フェーズステータス In Orbit
所有者/国 SPXS/US

Most Searched